Location: *
(46.1866°S, 178.5290°W)
Time: 12:52:40
(UTC+00:00)

PSLV R/B - Pass Details

Date: 19 May 2021
Orbit: 567 x 597 km, 98.2° (Epoch: 14 June)

Event Time Altitude Azimuth Distance (km) Brightness Sun altitude
Rises 05:31:33 0° 26° (NNE) 2,803 7.3 -11.0°
Reaches altitude 10° 05:33:43 10° 30° (NNE) 1,907 6.4 -11.3°
Maximum altitude 05:37:46 56° 108° (ESE) 699 4.0 -12.0°
Drops below altitude 10° 05:41:51 10° 186° (S) 1,918 6.5 -12.7°
Sets 05:44:02 0° 189° (S) 2,822 7.4 -13.1°
